QPF
0.05 0.03 0.02 0.02 0.01 0.01 0.01 0.01 0.02 0.01 0.01 0.01 0.01 0.01 0.02 0.02 0.02 0.01 0.01 0.01 0.01 0.01 0.01 0.01 0.01 0.01 0.01 0.01 0.00 0.00 0.01 0.01 0.00 0.00 0.00 0.00 0.01 0.01 0.01 0.00 0.01 0.01 0.01
0.03 0.02 0.01 0.02 0.01 0.01 0.02 0.01 0.01 0.00 0.00 0.00 0.01 0.01 0.01 0.02 0.02 0.01 0.01 0.01 0.01 0.01 0.01 0.01 0.00 0.00 0.01 0.01 0.00 0.00 0.00 0.00 0.00 0.01 0.00 0.00 0.01 0.01 0.02 0.01 0.01 0.02 0.01
0.03 0.02 0.01 0.02 0.01 0.01 0.01 0.01 0.01 0.01 0.01 0.01 0.00 0.01 0.00 0.00 0.00 0.01 0.01 0.01 0.01 0.01 0.01 0.00 0.00 0.00 0.00 0.00 0.00 0.00 0.00 0.01 0.01 0.01 0.01 0.01 0.01 0.01 0.01 0.01 0.01 0.01 0.01
0.02 0.03 0.02 0.02 0.02 0.01 0.01 0.02 0.02 0.01 0.01 0.01 0.00 0.00 0.00 0.00 0.00 0.00 0.01 0.01 0.01 0.01 0.01 0.01 0.01 0.01 0.00 0.00 0.00 0.00 0.01 0.02 0.01 0.00 0.00 0.00 0.01 0.01 0.01 0.01 0.01 0.01 0.01
0.03 0.03 0.03 0.02 0.03 0.03 0.03 0.03 0.04 0.02 0.01 0.01 0.00 0.01 0.01 0.01 0.00 0.00 0.01 0.01 0.01 0.01 0.01 0.01 0.01 0.01 0.00 0.00 0.01 0.01 0.01 0.01 0.01 0.01 0.00 0.00 0.01 0.01 0.02 0.02 0.02 0.02 0.01
0.04 0.05 0.05 0.05 0.06 0.06 0.04 0.03 0.04 0.03 0.02 0.01 0.01 0.01 0.01 0.01 0.01 0.01 0.01 0.01 0.01 0.01 0.01 0.01 0.01 0.01 0.01 0.01 0.01 0.01 0.01 0.02 0.01 0.01 0.01 0.01 0.01 0.02 0.03 0.03 0.02 0.02 0.02
0.04 0.06 0.06 0.06 0.06 0.05 0.04 0.04 0.04 0.03 0.02 0.02 0.02 0.02 0.03 0.02 0.02 0.02 0.02 0.02 0.02 0.02 0.02 0.02 0.01 0.01 0.01 0.01 0.01 0.01 0.02 0.02 0.01 0.02 0.02 0.01 0.02 0.03 0.05 0.06 0.05 0.04 0.03
0.05 0.06 0.06 0.03 0.03 0.05 0.05 0.06 0.06 0.05 0.04 0.04 0.04 0.04 0.03 0.02 0.02 0.02 0.02 0.02 0.03 0.03 0.02 0.03 0.03 0.03 0.02 0.02 0.01 0.02 0.02 0.02 0.01 0.01 0.01 0.02 0.03 0.03 0.07 0.08 0.07 0.06 0.04
0.07 0.07 0.06 0.06 0.05 0.04 0.05 0.05 0.04 0.04 0.03 0.03 0.03 0.03 0.03 0.03 0.03 0.03 0.03 0.03 0.03 0.02 0.03 0.04 0.04 0.04 0.03 0.02 0.02 0.02 0.02 0.02 0.01 0.02 0.01 0.02 0.02 0.04 0.09 0.10 0.10 0.09 0.06
0.10 0.07 0.05 0.06 0.06 0.04 0.04 0.03 0.03 0.03 0.03 0.02 0.03 0.04 0.03 0.03 0.03 0.03 0.03 0.03 0.03 0.04 0.03 0.03 0.05 0.04 0.03 0.03 0.02 0.02 0.03 0.02 0.01 0.01 0.01 0.01 0.02 0.05 0.10 0.11 0.11 0.11 0.09
0.07 0.05 0.03 0.03 0.04 0.03 0.02 0.01 0.02 0.01 0.02 0.02 0.03 0.03 0.03 0.03 0.03 0.03 0.04 0.04 0.03 0.04 0.04 0.04 0.03 0.03 0.03 0.03 0.02 0.03 0.04 0.03 0.03 0.03 0.03 0.02 0.03 0.07 0.10 0.12 0.11 0.10 0.11
0.03 0.02 0.02 0.02 0.02 0.02 0.01 0.01 0.02 0.01 0.01 0.02 0.03 0.04 0.05 0.04 0.04 0.04 0.04 0.03 0.02 0.02 0.02 0.03 0.04 0.03 0.03 0.04 0.04 0.03 0.04 0.04 0.05 0.05 0.05 0.04 0.05 0.07 0.10 0.12 0.12 0.11 0.11
0.02 0.01 0.02 0.02 0.02 0.02 0.02 0.01 0.01 0.02 0.02 0.03 0.03 0.03 0.05 0.04 0.04 0.04 0.04 0.03 0.04 0.04 0.05 0.04 0.04 0.03 0.03 0.05 0.05 0.05 0.06 0.05 0.07 0.06 0.05 0.05 0.07 0.08 0.10 0.12 0.13 0.14 0.15
0.03 0.02 0.03 0.03 0.02 0.02 0.02 0.03 0.02 0.02 0.02 0.03 0.03 0.03 0.05 0.06 0.06 0.06 0.06 0.05 0.06 0.06 0.07 0.06 0.06 0.05 0.04 0.04 0.04 0.05 0.05 0.06 0.07 0.08 0.06 0.05 0.06 0.08 0.10 0.13 0.14 0.15 0.17
0.04 0.03 0.03 0.03 0.03 0.03 0.04 0.04 0.03 0.03 0.04 0.05 0.05 0.05 0.06 0.07 0.07 0.08 0.08 0.08 0.08 0.08 0.07 0.07 0.06 0.06 0.05 0.04 0.04 0.03 0.04 0.04 0.06 0.07 0.06 0.06 0.06 0.06 0.09 0.11 0.14 0.15 0.15
0.04 0.04 0.03 0.03 0.04 0.05 0.05 0.04 0.04 0.04 0.04 0.04 0.04 0.05 0.05 0.07 0.07 0.07 0.08 0.09 0.10 0.09 0.08 0.07 0.06 0.05 0.05 0.04 0.04 0.04 0.04 0.04 0.05 0.06 0.06 0.06 0.05 0.06 0.08 0.09 0.12 0.14 0.15
0.06 0.06 0.06 0.06 0.06 0.06 0.05 0.03 0.03 0.04 0.04 0.03 0.03 0.04 0.05 0.06 0.06 0.06 0.05 0.07 0.08 0.08 0.06 0.06 0.06 0.06 0.05 0.04 0.04 0.05 0.05 0.05 0.06 0.07 0.06 0.07 0.07 0.07 0.08 0.09 0.09 0.10 0.12
0.07 0.08 0.08 0.07 0.06 0.05 0.05 0.05 0.05 0.05 0.04 0.04 0.03 0.03 0.03 0.05 0.05 0.06 0.07 0.07 0.06 0.05 0.04 0.04 0.05 0.06 0.05 0.05 0.05 0.05 0.04 0.05 0.06 0.07 0.06 0.07 0.07 0.08 0.09 0.10 0.10 0.10 0.12
0.08 0.07 0.06 0.06 0.05 0.06 0.07 0.08 0.08 0.06 0.05 0.04 0.02 0.02 0.04 0.05 0.05 0.05 0.06 0.05 0.04 0.04 0.04 0.03 0.04 0.04 0.05 0.05 0.05 0.04 0.04 0.04 0.04 0.04 0.05 0.06 0.07 0.07 0.06 0.06 0.07 0.09 0.10
0.08 0.07 0.05 0.05 0.05 0.06 0.06 0.06 0.06 0.06 0.05 0.04 0.03 0.03 0.03 0.02 0.03 0.04 0.04 0.03 0.03 0.03 0.03 0.04 0.03 0.03 0.04 0.04 0.03 0.03 0.04 0.04 0.05 0.05 0.04 0.05 0.05 0.05 0.04 0.04 0.06 0.07 0.06
0.06 0.05 0.05 0.05 0.05 0.05 0.05 0.05 0.04 0.05 0.04 0.03 0.02 0.02 0.02 0.01 0.02 0.03 0.04 0.04 0.04 0.04 0.04 0.04 0.04 0.03 0.03 0.02 0.03 0.03 0.02 0.03 0.05 0.05 0.04 0.04 0.04 0.05 0.06 0.06 0.06 0.05 0.04
0.06 0.05 0.05 0.07 0.09 0.06 0.06 0.06 0.05 0.05 0.05 0.03 0.02 0.02 0.02 0.01 0.01 0.02 0.03 0.03 0.03 0.03 0.04 0.04 0.03 0.03 0.02 0.02 0.04 0.04 0.04 0.04 0.04 0.03 0.04 0.04 0.05 0.05 0.05 0.04 0.04 0.03 0.02
0.06 0.05 0.06 0.06 0.06 0.05 0.05 0.07 0.08 0.08 0.07 0.04 0.03 0.03 0.02 0.02 0.01 0.01 0.01 0.02 0.02 0.03 0.03 0.04 0.03 0.03 0.03 0.03 0.04 0.06 0.07 0.05 0.04 0.04 0.05 0.05 0.05 0.06 0.05 0.03 0.04 0.04 0.03
0.07 0.07 0.05 0.05 0.05 0.04 0.05 0.06 0.07 0.08 0.07 0.06 0.04 0.02 0.02 0.01 0.01 0.01 0.01 0.01 0.01 0.02 0.03 0.03 0.02 0.04 0.05 0.04 0.05 0.06 0.06 0.06 0.06 0.05 0.05 0.05 0.05 0.05 0.05 0.03 0.03 0.02 0.03
0.07 0.07 0.06 0.05 0.05 0.05 0.05 0.05 0.04 0.04 0.04 0.03 0.03 0.02 0.02 0.01 0.01 0.01 0.00 0.00 0.01 0.02 0.02 0.03 0.03 0.04 0.05 0.06 0.07 0.06 0.05 0.05 0.06 0.06 0.06 0.05 0.05 0.05 0.05 0.04 0.03 0.03 0.04
0.09 0.10 0.07 0.05 0.04 0.05 0.05 0.04 0.03 0.03 0.03 0.03 0.03 0.03 0.02 0.02 0.01 0.01 0.01 0.01 0.01 0.02 0.02 0.03 0.03 0.03 0.04 0.05 0.06 0.06 0.05 0.05 0.05 0.06 0.06 0.05 0.04 0.04 0.03 0.03 0.04 0.04 0.04
MSLP
1013.96 1014.07 1014.37 1014.81 1015.32 1015.80 1016.19 1016.44 1016.55 1016.57 1016.57 1016.61 1016.75 1017.00 1017.33 1017.71 1018.07 1018.37 1018.55 1018.63 1018.62 1018.55 1018.49 1018.44 1018.44 1018.47 1018.52 1018.58 1018.61 1018.62 1018.60 1018.58 1018.57 1018.59 1018.64 1018.71 1018.81 1018.91 1019.00 1019.07 1019.12 1019.17 1019.22
1013.79 1014.06 1014.50 1015.06 1015.65 1016.18 1016.57 1016.79 1016.87 1016.85 1016.81 1016.83 1016.95 1017.19 1017.53 1017.91 1018.26 1018.53 1018.69 1018.74 1018.71 1018.63 1018.57 1018.55 1018.58 1018.65 1018.74 1018.81 1018.85 1018.84 1018.80 1018.74 1018.69 1018.68 1018.73 1018.82 1018.95 1019.10 1019.23 1019.34 1019.42 1019.47 1019.51
1013.67 1014.07 1014.64 1015.30 1015.96 1016.52 1016.92 1017.14 1017.19 1017.15 1017.10 1017.10 1017.22 1017.45 1017.77 1018.11 1018.43 1018.65 1018.76 1018.77 1018.72 1018.64 1018.60 1018.61 1018.69 1018.81 1018.93 1019.02 1019.05 1019.01 1018.92 1018.80 1018.71 1018.66 1018.69 1018.80 1018.97 1019.16 1019.35 1019.51 1019.63 1019.71 1019.75
1013.63 1014.14 1014.79 1015.52 1016.23 1016.82 1017.22 1017.44 1017.49 1017.45 1017.40 1017.41 1017.52 1017.74 1018.03 1018.33 1018.59 1018.75 1018.81 1018.78 1018.70 1018.63 1018.61 1018.67 1018.80 1018.96 1019.12 1019.22 1019.22 1019.14 1018.99 1018.80 1018.64 1018.55 1018.56 1018.68 1018.88 1019.12 1019.37 1019.59 1019.76 1019.88 1019.94
1013.71 1014.27 1014.96 1015.72 1016.44 1017.04 1017.45 1017.67 1017.73 1017.71 1017.67 1017.70 1017.82 1018.03 1018.29 1018.55 1018.75 1018.86 1018.86 1018.79 1018.70 1018.63 1018.65 1018.75 1018.93 1019.13 1019.30 1019.39 1019.37 1019.23 1019.00 1018.75 1018.52 1018.39 1018.38 1018.49 1018.72 1019.01 1019.31 1019.59 1019.82 1019.98 1020.08
1013.90 1014.45 1015.15 1015.89 1016.59 1017.17 1017.58 1017.80 1017.88 1017.89 1017.88 1017.94 1018.07 1018.28 1018.53 1018.75 1018.90 1018.95 1018.92 1018.82 1018.73 1018.68 1018.73 1018.86 1019.07 1019.30 1019.47 1019.54 1019.47 1019.28 1018.98 1018.66 1018.38 1018.20 1018.17 1018.28 1018.52 1018.85 1019.20 1019.53 1019.80 1020.01 1020.15
1014.19 1014.69 1015.33 1016.03 1016.68 1017.23 1017.61 1017.83 1017.93 1017.96 1018.00 1018.08 1018.24 1018.45 1018.68 1018.88 1019.00 1019.03 1018.97 1018.87 1018.78 1018.75 1018.82 1018.98 1019.20 1019.43 1019.59 1019.63 1019.51 1019.26 1018.91 1018.54 1018.22 1018.01 1017.96 1018.08 1018.33 1018.67 1019.04 1019.41 1019.72 1019.96 1020.14
1014.53 1014.95 1015.51 1016.13 1016.72 1017.21 1017.56 1017.78 1017.88 1017.94 1018.00 1018.12 1018.29 1018.51 1018.74 1018.92 1019.03 1019.04 1018.98 1018.89 1018.81 1018.80 1018.89 1019.06 1019.28 1019.49 1019.62 1019.61 1019.46 1019.16 1018.78 1018.38 1018.03 1017.82 1017.77 1017.89 1018.14 1018.49 1018.87 1019.25 1019.58 1019.85 1020.06
1014.87 1015.21 1015.68 1016.21 1016.72 1017.15 1017.47 1017.66 1017.76 1017.83 1017.91 1018.04 1018.23 1018.45 1018.67 1018.85 1018.95 1018.97 1018.92 1018.84 1018.79 1018.80 1018.89 1019.06 1019.26 1019.44 1019.52 1019.48 1019.29 1018.97 1018.58 1018.17 1017.84 1017.64 1017.60 1017.72 1017.98 1018.32 1018.69 1019.06 1019.39 1019.66 1019.89
1015.17 1015.44 1015.83 1016.28 1016.72 1017.08 1017.35 1017.51 1017.60 1017.67 1017.75 1017.88 1018.06 1018.28 1018.49 1018.67 1018.77 1018.80 1018.77 1018.72 1018.69 1018.71 1018.80 1018.95 1019.13 1019.26 1019.31 1019.23 1019.02 1018.70 1018.31 1017.93 1017.63 1017.46 1017.44 1017.58 1017.83 1018.16 1018.51 1018.86 1019.16 1019.43 1019.66
1015.43 1015.66 1015.99 1016.37 1016.74 1017.04 1017.26 1017.38 1017.45 1017.49 1017.56 1017.68 1017.84 1018.04 1018.24 1018.40 1018.51 1018.55 1018.54 1018.51 1018.50 1018.54 1018.62 1018.75 1018.89 1018.99 1019.00 1018.90 1018.68 1018.36 1018.01 1017.68 1017.42 1017.30 1017.31 1017.46 1017.71 1018.01 1018.34 1018.64 1018.91 1019.15 1019.38
1015.65 1015.87 1016.16 1016.49 1016.80 1017.04 1017.21 1017.29 1017.33 1017.35 1017.39 1017.48 1017.62 1017.79 1017.96 1018.11 1018.21 1018.26 1018.27 1018.26 1018.26 1018.30 1018.38 1018.49 1018.59 1018.66 1018.64 1018.52 1018.31 1018.02 1017.71 1017.43 1017.23 1017.15 1017.19 1017.35 1017.59 1017.87 1018.15 1018.42 1018.65 1018.86 1019.06
1015.86 1016.08 1016.36 1016.65 1016.91 1017.10 1017.21 1017.26 1017.26 1017.26 1017.27 1017.33 1017.43 1017.57 1017.71 1017.84 1017.94 1017.99 1018.00 1018.00 1018.01 1018.05 1018.11 1018.20 1018.28 1018.31 1018.28 1018.16 1017.95 1017.70 1017.43 1017.20 1017.05 1017.01 1017.07 1017.24 1017.46 1017.71 1017.96 1018.18 1018.37 1018.54 1018.71
1016.08 1016.32 1016.59 1016.84 1017.05 1017.20 1017.27 1017.28 1017.26 1017.23 1017.22 1017.25 1017.33 1017.43 1017.54 1017.65 1017.72 1017.76 1017.77 1017.77 1017.78 1017.81 1017.87 1017.93 1017.99 1018.00 1017.95 1017.84 1017.65 1017.43 1017.20 1017.01 1016.89 1016.87 1016.95 1017.10 1017.31 1017.53 1017.74 1017.92 1018.07 1018.20 1018.34
1016.33 1016.58 1016.83 1017.04 1017.21 1017.31 1017.35 1017.34 1017.31 1017.27 1017.25 1017.27 1017.32 1017.39 1017.48 1017.55 1017.60 1017.62 1017.62 1017.61 1017.61 1017.63 1017.66 1017.71 1017.75 1017.75 1017.69 1017.58 1017.41 1017.21 1017.00 1016.84 1016.74 1016.72 1016.79 1016.92 1017.10 1017.29 1017.47 1017.61 1017.73 1017.83 1017.95
1016.61 1016.85 1017.07 1017.23 1017.35 1017.42 1017.44 1017.42 1017.39 1017.36 1017.35 1017.36 1017.40 1017.46 1017.52 1017.56 1017.58 1017.58 1017.56 1017.53 1017.51 1017.50 1017.52 1017.54 1017.56 1017.54 1017.48 1017.37 1017.21 1017.02 1016.83 1016.66 1016.56 1016.53 1016.58 1016.68 1016.83 1016.99 1017.14 1017.26 1017.36 1017.44 1017.54
1016.89 1017.11 1017.27 1017.39 1017.46 1017.50 1017.51 1017.50 1017.48 1017.48 1017.49 1017.52 1017.57 1017.62 1017.65 1017.67 1017.66 1017.62 1017.57 1017.51 1017.47 1017.44 1017.43 1017.43 1017.42 1017.39 1017.31 1017.19 1017.03 1016.84 1016.64 1016.47 1016.35 1016.30 1016.31 1016.39 1016.50 1016.63 1016.76 1016.88 1016.97 1017.04 1017.13
1017.15 1017.32 1017.43 1017.49 1017.52 1017.54 1017.55 1017.56 1017.59 1017.62 1017.67 1017.73 1017.79 1017.83 1017.85 1017.84 1017.79 1017.73 1017.64 1017.56 1017.48 1017.42 1017.38 1017.35 1017.32 1017.26 1017.17 1017.03 1016.86 1016.66 1016.45 1016.26 1016.12 1016.03 1016.02 1016.06 1016.15 1016.26 1016.38 1016.49 1016.58 1016.67 1016.75
1017.38 1017.49 1017.54 1017.56 1017.56 1017.57 1017.60 1017.64 1017.71 1017.79 1017.89 1017.97 1018.04 1018.08 1018.08 1018.05 1017.98 1017.88 1017.77 1017.65 1017.55 1017.46 1017.39 1017.33 1017.26 1017.18 1017.06 1016.90 1016.71 1016.48 1016.26 1016.05 1015.88 1015.77 1015.73 1015.75 1015.82 1015.92 1016.04 1016.15 1016.26 1016.35 1016.44
1017.55 1017.62 1017.63 1017.62 1017.61 1017.62 1017.67 1017.76 1017.87 1018.00 1018.13 1018.24 1018.32 1018.35 1018.34 1018.28 1018.19 1018.07 1017.93 1017.80 1017.67 1017.56 1017.47 1017.37 1017.27 1017.15 1017.00 1016.81 1016.59 1016.35 1016.10 1015.87 1015.69 1015.56 1015.51 1015.51 1015.57 1015.67 1015.79 1015.92 1016.04 1016.14 1016.24
1017.70 1017.76 1017.75 1017.72 1017.71 1017.74 1017.82 1017.94 1018.10 1018.26 1018.42 1018.54 1018.62 1018.64 1018.62 1018.54 1018.43 1018.29 1018.15 1018.00 1017.87 1017.74 1017.62 1017.50 1017.37 1017.21 1017.02 1016.80 1016.54 1016.27 1016.01 1015.77 1015.57 1015.44 1015.38 1015.39 1015.45 1015.56 1015.69 1015.83 1015.95 1016.07 1016.18
1017.87 1017.94 1017.94 1017.92 1017.92 1017.97 1018.07 1018.22 1018.39 1018.58 1018.74 1018.87 1018.94 1018.95 1018.90 1018.81 1018.69 1018.55 1018.41 1018.27 1018.13 1018.00 1017.87 1017.73 1017.57 1017.37 1017.14 1016.88 1016.59 1016.29 1016.01 1015.76 1015.56 1015.44 1015.38 1015.40 1015.48 1015.59 1015.74 1015.88 1016.02 1016.14 1016.24
1018.12 1018.22 1018.24 1018.24 1018.26 1018.31 1018.43 1018.58 1018.77 1018.95 1019.11 1019.22 1019.27 1019.26 1019.20 1019.10 1018.97 1018.84 1018.70 1018.58 1018.45 1018.33 1018.19 1018.04 1017.85 1017.62 1017.35 1017.05 1016.73 1016.40 1016.10 1015.84 1015.64 1015.52 1015.49 1015.52 1015.61 1015.75 1015.91 1016.06 1016.20 1016.32 1016.41
1018.49 1018.63 1018.69 1018.70 1018.72 1018.77 1018.88 1019.02 1019.19 1019.35 1019.48 1019.56 1019.59 1019.56 1019.48 1019.38 1019.25 1019.12 1019.01 1018.90 1018.79 1018.68 1018.55 1018.38 1018.18 1017.92 1017.61 1017.27 1016.92 1016.56 1016.24 1015.97 1015.77 1015.66 1015.63 1015.69 1015.80 1015.96 1016.13 1016.30 1016.45 1016.55 1016.62
1018.98 1019.17 1019.25 1019.26 1019.27 1019.30 1019.36 1019.47 1019.60 1019.72 1019.82 1019.87 1019.87 1019.82 1019.73 1019.62 1019.49 1019.38 1019.27 1019.18 1019.09 1018.99 1018.86 1018.69 1018.47 1018.20 1017.86 1017.49 1017.10 1016.72 1016.37 1016.08 1015.88 1015.76 1015.75 1015.82 1015.95 1016.13 1016.33 1016.52 1016.67 1016.78 1016.83
1019.59 1019.80 1019.87 1019.87 1019.83 1019.81 1019.83 1019.88 1019.95 1020.03 1020.08 1020.10 1020.08 1020.01 1019.91 1019.79 1019.66 1019.55 1019.45 1019.36 1019.28 1019.19 1019.07 1018.90 1018.67 1018.38 1018.03 1017.64 1017.22 1016.81 1016.43 1016.12 1015.89 1015.77 1015.75 1015.83 1015.99 1016.19 1016.42 1016.63 1016.81 1016.94 1016.99
Thickness
5796 5792 5781 5779 5778 5776 5775 5774 5772 5770 5767 5765 5762 5760 5758 5755 5753 5752 5750 5749 5748 5747 5746 5746 5745 5744 5743 5743 5742 5741 5740 5740 5739 5739 5738 5737 5736 5736 5735 5734 5734 5736 5732
5798 5790 5779 5777 5775 5774 5772 5770 5768 5766 5764 5761 5758 5756 5754 5752 5750 5749 5748 5746 5745 5744 5744 5743 5743 5742 5741 5740 5739 5739 5738 5737 5737 5736 5736 5736 5735 5733 5733 5732 5733 5734 5730
5795 5787 5778 5774 5772 5770 5769 5767 5764 5762 5760 5757 5755 5753 5751 5749 5747 5745 5745 5744 5743 5741 5740 5740 5739 5739 5738 5737 5736 5736 5735 5735 5734 5734 5735 5739 5736 5732 5730 5729 5729 5728 5727
5791 5784 5778 5771 5769 5767 5765 5763 5760 5758 5756 5754 5752 5749 5747 5746 5744 5742 5741 5741 5740 5739 5738 5737 5736 5735 5735 5734 5733 5733 5732 5732 5732 5733 5737 5740 5738 5731 5728 5727 5726 5725 5725
5786 5781 5774 5768 5765 5763 5761 5759 5757 5755 5752 5750 5748 5746 5744 5742 5741 5739 5738 5737 5737 5735 5735 5734 5733 5732 5731 5731 5730 5729 5729 5729 5729 5731 5738 5738 5736 5729 5726 5725 5724 5723 5722
5782 5778 5770 5765 5762 5759 5756 5754 5752 5751 5748 5746 5744 5742 5740 5739 5737 5736 5735 5734 5733 5732 5731 5731 5729 5729 5728 5727 5727 5726 5726 5726 5728 5735 5735 5734 5734 5727 5724 5723 5722 5721 5720
5779 5774 5767 5761 5758 5755 5753 5750 5748 5746 5744 5742 5740 5738 5737 5735 5734 5732 5731 5731 5730 5729 5728 5727 5726 5725 5725 5724 5724 5724 5723 5724 5727 5734 5733 5732 5730 5724 5722 5720 5720 5719 5718
5775 5770 5763 5756 5754 5751 5749 5746 5744 5742 5740 5738 5736 5734 5733 5731 5730 5729 5728 5727 5726 5725 5724 5723 5722 5722 5722 5721 5721 5721 5721 5721 5726 5731 5731 5729 5725 5721 5719 5718 5717 5716 5716
5771 5766 5761 5755 5750 5747 5744 5742 5740 5738 5736 5734 5732 5730 5729 5727 5726 5725 5724 5723 5722 5721 5720 5719 5719 5718 5718 5718 5718 5718 5718 5719 5723 5728 5728 5727 5723 5718 5717 5715 5715 5713 5713
5766 5762 5758 5754 5750 5746 5742 5738 5736 5734 5732 5730 5728 5726 5725 5723 5722 5721 5720 5718 5717 5717 5716 5716 5715 5714 5714 5714 5715 5715 5715 5716 5722 5726 5726 5724 5719 5716 5714 5713 5712 5711 5710
5759 5756 5754 5751 5747 5745 5742 5736 5733 5730 5728 5726 5725 5723 5721 5722 5721 5718 5717 5714 5713 5712 5712 5711 5711 5711 5711 5711 5712 5711 5712 5717 5721 5721 5721 5718 5714 5712 5711 5711 5710 5709 5708
5752 5750 5749 5746 5743 5742 5739 5734 5731 5729 5726 5725 5723 5721 5720 5719 5718 5716 5712 5710 5709 5708 5708 5707 5707 5707 5708 5712 5711 5709 5712 5715 5717 5717 5716 5712 5710 5708 5708 5708 5708 5707 5706
5750 5746 5744 5742 5738 5737 5734 5731 5729 5727 5724 5722 5720 5718 5716 5715 5714 5712 5711 5709 5707 5706 5706 5705 5706 5707 5708 5709 5708 5709 5710 5711 5712 5712 5711 5707 5705 5705 5705 5704 5705 5704 5704
5746 5741 5739 5736 5733 5731 5729 5727 5724 5723 5720 5719 5716 5714 5713 5711 5710 5708 5706 5706 5705 5704 5702 5702 5702 5702 5702 5703 5703 5704 5705 5706 5706 5705 5704 5702 5701 5701 5701 5701 5701 5701 5701
5740 5737 5734 5731 5728 5725 5722 5721 5720 5717 5716 5714 5711 5708 5707 5707 5705 5704 5701 5699 5700 5699 5698 5697 5697 5696 5696 5698 5698 5699 5700 5700 5700 5699 5699 5698 5697 5696 5697 5697 5697 5697 5697
5735 5732 5729 5726 5722 5719 5717 5715 5714 5712 5709 5708 5705 5703 5701 5700 5698 5697 5696 5694 5694 5693 5693 5691 5691 5690 5691 5691 5692 5692 5693 5694 5694 5693 5693 5694 5693 5692 5692 5693 5693 5693 5693
5731 5727 5723 5721 5717 5714 5712 5710 5708 5706 5704 5702 5699 5697 5695 5693 5692 5691 5691 5690 5688 5687 5686 5686 5685 5685 5685 5686 5686 5686 5686 5687 5687 5687 5687 5688 5689 5688 5687 5687 5688 5688 5688
5728 5723 5720 5718 5713 5709 5707 5704 5703 5701 5698 5696 5694 5691 5689 5687 5685 5684 5684 5683 5681 5681 5681 5680 5679 5679 5679 5679 5679 5679 5680 5680 5680 5679 5680 5681 5682 5683 5683 5683 5682 5682 5683
5724 5719 5715 5712 5708 5705 5701 5698 5696 5694 5692 5690 5688 5685 5682 5681 5680 5679 5677 5675 5675 5675 5674 5673 5673 5671 5670 5670 5671 5671 5673 5673 5672 5672 5673 5673 5674 5675 5676 5676 5676 5676 5677
5719 5715 5710 5706 5703 5699 5696 5693 5690 5688 5686 5683 5681 5678 5676 5675 5673 5672 5672 5669 5669 5668 5666 5664 5662 5661 5661 5661 5664 5664 5664 5665 5665 5665 5666 5666 5667 5668 5669 5669 5670 5670 5671
5713 5708 5705 5702 5698 5694 5691 5688 5685 5682 5680 5677 5674 5671 5669 5668 5666 5665 5665 5663 5662 5661 5658 5657 5656 5655 5654 5654 5655 5656 5658 5659 5658 5657 5658 5659 5660 5660 5661 5661 5663 5664 5665
5708 5704 5700 5696 5694 5690 5687 5683 5680 5676 5674 5671 5668 5664 5662 5661 5659 5659 5657 5657 5654 5652 5650 5649 5647 5648 5648 5647 5646 5647 5648 5650 5649 5650 5650 5650 5651 5652 5653 5653 5654 5655 5658
5704 5700 5697 5692 5688 5685 5682 5679 5675 5671 5667 5665 5661 5659 5656 5654 5652 5650 5649 5648 5646 5646 5644 5641 5640 5639 5640 5641 5640 5639 5639 5640 5640 5641 5640 5641 5641 5643 5644 5644 5646 5646 5648
5700 5696 5692 5687 5683 5679 5676 5674 5670 5666 5661 5657 5655 5653 5650 5647 5645 5643 5641 5639 5638 5638 5635 5635 5634 5633 5632 5633 5633 5632 5631 5630 5629 5632 5633 5634 5634 5634 5635 5636 5637 5639 5640
5696 5691 5686 5681 5677 5673 5670 5667 5663 5660 5656 5653 5650 5646 5644 5642 5639 5636 5634 5631 5630 5629 5627 5625 5625 5625 5625 5625 5625 5625 5624 5623 5623 5622 5624 5625 5626 5627 5627 5627 5629 5630 5632
5691 5685 5681 5675 5671 5667 5664 5661 5657 5653 5649 5646 5643 5640 5638 5636 5633 5629 5627 5624 5622 5621 5619 5618 5617 5618 5617 5616 5616 5617 5616 5616 5615 5616 5616 5616 5617 5618 5619 5619 5621 5623 5624